Weather History for Klawock, AK

Change the Weather History Date:

Monday, September 2, 2013

  Actual Average Record
Temperature  
Mean Temperature 61 °F -  
Max Temperature 69 °F 59 °F 69 °F (2013)
Min Temperature 53 °F 47 °F 43 °F (2000)
Degree Days  
Heating Degree Days 4    
Growing Degree Days 11 (Base 50)    
Moisture  
Dew Point 55 °F    
Average Humidity 92    
Maximum Humidity 100    
Minimum Humidity 70    
Precipitation  
Precipitation 0.01 in - - ()
Sea Level Pressure  
Sea Level Pressure 29.93 in    
Wind  
Wind Speed 1 mph (WSW)    
Max Wind Speed 6 mph    
Max Gust Speed -    
Visibility 8 miles    
Events      
Averages and records for this station are not official NWS values.
T = Trace of Precipitation, MM = Missing Value Source: NWS Daily Summary

Daily Weather History Graph

Daily Weather History Graph

Search for Another Location

Airport:

Trip Planner

Search our weather history database for the weather conditions in past years. The results will help you decide how hot, cold, wet, or windy it might be!

Date:

Astronomy

Sep. 02, 2013 Rise Set
Actual Time 6:00 AM AKDT 7:42 PM AKDT
Civil Twilight 5:21 AM AKDT 8:20 PM AKDT
Nautical Twilight 4:33 AM AKDT 9:08 PM AKDT
Astronomical Twilight 3:37 AM AKDT 10:03 PM AKDT
Moon 3:06 AM AKDT (9/2) 6:10 PM AKDT (9/2)
Length of Visible Light 14h 59m
Length of Day
13h 41m
Waning Crescent, 7% of the Moon is Illuminated
Sep 2
Waning Crescent
Sep 5
New
Sep 12
First Quarter
Sep 19
Full
Sep 26
Last Quarter

Hourly Weather History & Observations

Time (AKDT) Temp. Dew Point Humidity Pressure Visibility Wind Dir Wind Speed Gust Speed Precip Events Conditions
12:10 AM 55.4 °F 55.4 °F 100% 29.89 in 1.5 mi Calm Calm - N/A   Overcast
12:19 AM 55.4 °F 55.4 °F 100% 29.89 in 1.2 mi Calm Calm - N/A   Overcast
12:48 AM 57.2 °F 55.4 °F 94% 29.90 in 1.5 mi Calm Calm - N/A   Overcast
12:53 AM 55.9 °F 55.9 °F 100% 29.89 in 2.0 mi Calm Calm - N/A   Overcast
1:04 AM 55.4 °F 55.4 °F 100% 29.89 in 3.0 mi Calm Calm - N/A   Overcast
1:31 AM 55.4 °F 55.4 °F 100% 29.90 in 2.0 mi Calm Calm - 0.01 in   Overcast
1:51 AM 55.4 °F 55.4 °F 100% 29.90 in 4.0 mi Calm Calm - 0.01 in   Overcast
1:53 AM 55.9 °F 55.9 °F 100% 29.90 in 4.0 mi Calm Calm - 0.01 in   Overcast
2:46 AM 55.4 °F 55.4 °F 100% 29.90 in 10.0 mi Calm Calm - N/A   Overcast
2:53 AM 55.9 °F 55.9 °F 100% 29.90 in 10.0 mi Calm Calm - N/A   Overcast
3:13 AM 55.4 °F 55.4 °F 100% 29.90 in 10.0 mi Calm Calm - N/A   Overcast
3:43 AM 57.2 °F 55.4 °F 94% 29.89 in 10.0 mi Calm Calm - N/A   Overcast
3:53 AM 57.0 °F 55.9 °F 96% 29.89 in 10.0 mi Calm Calm - N/A   Overcast
4:37 AM 57.2 °F 55.4 °F 94% 29.90 in 10.0 mi Calm Calm - N/A   Overcast
4:53 AM 55.9 °F 55.9 °F 100% 29.90 in 10.0 mi West 3.5 mph - N/A   Overcast
5:53 AM 55.9 °F 55.0 °F 97% 29.90 in 10.0 mi Calm Calm - N/A   Overcast
6:53 AM 55.9 °F 55.0 °F 97% 29.91 in 10.0 mi Calm Calm - N/A   Overcast
7:53 AM 55.9 °F 55.0 °F 97% 29.93 in 10.0 mi Calm Calm - N/A   Overcast
8:14 AM 57.2 °F 55.4 °F 94% 29.92 in 10.0 mi NNE 3.5 mph - N/A   Overcast
8:53 AM 57.0 °F 54.0 °F 89% 29.92 in 10.0 mi NNE 3.5 mph - N/A   Overcast
9:33 AM 57.2 °F 55.4 °F 94% 29.93 in 10.0 mi North 3.5 mph - N/A   Overcast
9:53 AM 57.9 °F 55.0 °F 90% 29.93 in 10.0 mi North 3.5 mph - N/A   Overcast
10:53 AM 60.1 °F 55.0 °F 83% 29.94 in 10.0 mi North 4.6 mph - N/A   Overcast
11:35 AM 60.8 °F 55.4 °F 82% 29.94 in 10.0 mi Calm Calm - N/A   Overcast
11:53 AM 63.0 °F 55.9 °F 78% 29.94 in 10.0 mi Calm Calm - N/A   Scattered Clouds
12:53 PM 66.0 °F 57.0 °F 73% 29.94 in 10.0 mi WSW 3.5 mph - N/A   Clear
1:53 PM 66.9 °F 57.9 °F 73% 29.94 in 10.0 mi WSW 4.6 mph - N/A   Clear
2:53 PM 69.1 °F 59.0 °F 70% 29.93 in 10.0 mi SW 5.8 mph - N/A   Clear
3:53 PM 66.9 °F 57.9 °F 73% 29.93 in 10.0 mi SW 4.6 mph - N/A   Clear
4:53 PM 64.9 °F 57.9 °F 78% 29.93 in 10.0 mi SW 3.5 mph - N/A   Clear
5:53 PM 64.0 °F 57.0 °F 78% 29.94 in 9.0 mi SSW 5.8 mph - N/A   Mostly Cloudy
6:53 PM 61.0 °F 55.9 °F 83% 29.95 in 10.0 mi SW 4.6 mph - N/A   Scattered Clouds
7:53 PM 57.9 °F 55.0 °F 90% 29.96 in 10.0 mi South 3.5 mph - N/A   Scattered Clouds
8:53 PM 55.0 °F 54.0 °F 96% 29.96 in 10.0 mi SSW 3.5 mph - N/A   Clear
9:53 PM 54.0 °F 53.1 °F 97% 29.97 in 10.0 mi Calm Calm - N/A   Clear
10:53 PM 53.1 °F 52.0 °F 96% 29.98 in 10.0 mi Calm Calm - N/A   Clear
11:22 PM 53.6 °F 51.8 °F 94% 29.98 in 2.5 mi Calm Calm - N/A   Scattered Clouds
11:24 PM 53.6 °F 53.6 °F 100% 29.98 in 1.2 mi Calm Calm - N/A   Scattered Clouds
11:26 PM 53.6 °F 53.6 °F 100% 29.98 in 0.8 mi Calm Calm - N/A   Mist
11:53 PM 53.1 °F 52.0 °F 96% 29.99 in 0.8 mi Calm Calm - N/A   Mist